Lyndonville, VT

12:32 PM EST on December 12, 2019 (GMT -0500)
Lyndonville

Weather History for KCDA - August, 2019

Change the Weather History Date:

Monday, August 19, 2019

  Actual Average (K1V4) Record (K1V4)
Temperature  
Mean Temperature 74 °F -  
Max Temperature 82 °F 75 °F 89 °F (2015)
Min Temperature 65 °F 53 °F 44 °F (2007)
Cooling Degree Days 8    
Growing Degree Days 24 (Base 50)    
Moisture  
Dew Point 65 °F    
Average Humidity 80    
Maximum Humidity 97    
Minimum Humidity 56    
Precipitation  
Precipitation 0.00 in - - ()
Sea Level Pressure  
Sea Level Pressure 29.96 in    
Wind  
Wind Speed 3 mph (SSE)    
Max Wind Speed 10 mph    
Max Gust Speed 17 mph    
Visibility 9 miles    
Events Rain    
Averages and records for this station are not official NWS values.
T = Trace of Precipitation, MM = Missing Value Source: NWS Daily Summary

Daily Weather History Graph

Daily Weather History Graph

Search for Another Location

Airport or City:

Astronomy

Aug. 19, 2019 Rise Set
Actual Time 5:55 AM EDT 7:47 PM EDT
Civil Twilight 5:23 AM EDT 8:18 PM EDT
Nautical Twilight 4:45 AM EDT 8:56 PM EDT
Astronomical Twilight 4:03 AM EDT 9:38 PM EDT
Moon 9:58 PM EDT (8/19) 9:41 AM EDT (8/19)
Length of Visible Light 14h 54m
Length of Day
13h 52m
Waning Gibbous, 85% of the Moon is Illuminated
Aug 19
Waning Gibbous
Aug 23
Last Quarter
Aug 30
New
Sep 5
First Quarter
Sep 14
Full

Hourly Weather History & Observations

Time (EDT) Temp. Heat Index Dew Point Humidity Pressure Visibility Wind Dir Wind Speed Gust Speed Precip Events Conditions
12:16 AM 66.2 °F - 64.6 °F 94% 29.96 in 10.0 mi Calm Calm - N/A   Scattered Clouds
12:36 AM 66.2 °F - 64.6 °F 94% 29.97 in 5.0 mi Calm Calm - N/A Rain Rain
12:57 AM 67.1 °F - 64.9 °F 93% 29.96 in 10.0 mi SSE 3.5 mph - N/A   Mostly Cloudy
1:16 AM 66.7 °F - 65.1 °F 95% 29.96 in 10.0 mi SE 5.8 mph - N/A   Mostly Cloudy
1:36 AM 67.6 °F - 65.3 °F 92% 29.96 in 10.0 mi Calm Calm - N/A   Scattered Clouds
1:55 AM 66.6 °F - 64.8 °F 94% 29.95 in 7.0 mi ENE 3.5 mph - N/A   Scattered Clouds
2:17 AM 66.6 °F - 65.3 °F 96% 29.94 in 7.0 mi Calm Calm - N/A   Scattered Clouds
2:36 AM 66.7 °F - 65.3 °F 95% 29.93 in 10.0 mi Calm Calm - N/A   Scattered Clouds
2:56 AM 65.3 °F - 64.0 °F 96% 29.95 in 0.8 mi SW 3.5 mph - N/A   Mostly Cloudy
3:16 AM 66.2 °F - 65.1 °F 96% 29.96 in 7.0 mi Calm Calm - N/A   Scattered Clouds
3:37 AM 67.1 °F - 65.8 °F 96% 29.97 in 7.0 mi Calm Calm - N/A   Overcast
3:56 AM 68.0 °F - 66.4 °F 95% 29.96 in 7.0 mi East 3.5 mph - N/A   Overcast
4:16 AM 66.2 °F - 65.3 °F 97% 29.97 in 1.8 mi Calm Calm - N/A   Overcast
4:36 AM 66.6 °F - 65.5 °F 96% 29.97 in 7.0 mi Calm Calm - N/A   Mostly Cloudy
4:57 AM 66.6 °F - 65.5 °F 96% 29.97 in 7.0 mi ESE 5.8 mph - N/A   Clear
5:16 AM 66.9 °F - 65.8 °F 96% 29.97 in 5.0 mi ESE 3.5 mph - N/A   Scattered Clouds
5:36 AM 66.4 °F - 65.3 °F 96% 29.97 in 3.0 mi ESE 4.6 mph - N/A   Overcast
5:56 AM 67.1 °F - 65.8 °F 96% 29.98 in 5.0 mi ESE 4.6 mph - N/A   Mostly Cloudy
6:17 AM 66.6 °F - 65.5 °F 96% 29.97 in 4.0 mi ESE 5.8 mph - N/A   Overcast
6:36 AM 66.7 °F - 65.7 °F 96% 29.97 in 3.0 mi SE 4.6 mph - N/A   Overcast
6:56 AM 67.1 °F - 65.8 °F 96% 29.98 in 3.0 mi SE 4.6 mph - N/A   Overcast
7:16 AM 67.1 °F - 65.8 °F 96% 29.98 in 7.0 mi SE 4.6 mph - N/A   Overcast
7:37 AM 68.0 °F - 66.4 °F 95% 29.97 in 7.0 mi ESE 3.5 mph - N/A   Overcast
7:56 AM 68.0 °F - 66.4 °F 95% 29.97 in 7.0 mi SE 6.9 mph - N/A   Overcast
8:16 AM 68.7 °F - 66.4 °F 92% 29.98 in 10.0 mi SSE 6.9 mph - N/A   Overcast
8:36 AM 69.4 °F - 66.6 °F 91% 29.98 in 10.0 mi South 5.8 mph - N/A   Mostly Cloudy
8:57 AM 70.3 °F - 66.2 °F 87% 29.99 in 10.0 mi South 4.6 mph - N/A   Mostly Cloudy
9:16 AM 71.6 °F - 66.6 °F 84% 29.98 in 10.0 mi SE 5.8 mph - N/A   Scattered Clouds
9:36 AM 71.2 °F - 66.9 °F 86% 29.98 in 10.0 mi SE 6.9 mph - N/A   Scattered Clouds
9:56 AM 71.1 °F - 66.6 °F 86% 29.96 in 10.0 mi ESE 4.6 mph - N/A   Clear
10:16 AM 70.9 °F - 66.4 °F 86% 29.96 in 10.0 mi East 4.6 mph - N/A   Clear
10:36 AM 73.0 °F - 67.3 °F 82% 29.96 in 10.0 mi SSE 4.6 mph - N/A   Clear
10:57 AM 73.0 °F - 66.7 °F 81% 29.96 in 10.0 mi SE 5.8 mph - N/A   Scattered Clouds
11:16 AM 74.8 °F - 67.8 °F 79% 29.96 in 10.0 mi SSE 5.8 mph - N/A   Scattered Clouds
11:36 AM 76.6 °F - 68.0 °F 75% 29.96 in 10.0 mi SE 5.8 mph - N/A   Clear
11:56 AM 77.0 °F - 67.6 °F 73% 29.96 in 10.0 mi SE 5.8 mph - N/A   Scattered Clouds
12:16 PM 77.2 °F - 67.6 °F 72% 29.95 in 10.0 mi ESE 5.8 mph - N/A   Scattered Clouds
12:36 PM 77.4 °F - 68.2 °F 73% 29.95 in 10.0 mi SE 6.9 mph - N/A   Clear
12:57 PM 77.5 °F - 68.0 °F 72% 29.94 in 10.0 mi ESE 4.6 mph - N/A   Clear
1:16 PM 78.1 °F - 67.8 °F 71% 29.95 in 10.0 mi SE 4.6 mph - N/A   Scattered Clouds
1:36 PM 79.0 °F - 67.6 °F 68% 29.95 in 10.0 mi SSW 4.6 mph - N/A   Scattered Clouds
1:56 PM 80.1 °F 82.3 °F 67.1 °F 64% 29.96 in 10.0 mi South 8.1 mph - N/A   Mostly Cloudy
2:16 PM 79.7 °F - 67.8 °F 67% 29.95 in 10.0 mi SSW 4.6 mph - N/A   Mostly Cloudy
2:36 PM 81.1 °F 83.1 °F 65.5 °F 59% 29.95 in 10.0 mi South 9.2 mph 17.3 mph N/A   Scattered Clouds
2:56 PM 80.1 °F 82.1 °F 66.2 °F 62% 29.94 in 10.0 mi SSW 4.6 mph 17.3 mph N/A   Scattered Clouds
3:16 PM 79.5 °F - 65.8 °F 63% 29.94 in 10.0 mi SW 9.2 mph - N/A   Scattered Clouds
3:37 PM 81.3 °F 83.2 °F 65.1 °F 58% 29.93 in 10.0 mi SW 8.1 mph - N/A   Scattered Clouds
3:56 PM 82.0 °F 83.8 °F 65.1 °F 56% 29.93 in 10.0 mi SSW 10.4 mph 16.1 mph N/A   Clear
4:16 PM 80.4 °F 82.2 °F 64.9 °F 59% 29.93 in 10.0 mi SSW 8.1 mph - N/A   Scattered Clouds
4:36 PM 78.8 °F - 64.9 °F 62% 29.93 in 10.0 mi South 3.5 mph - N/A   Clear
4:56 PM 78.3 °F - 64.9 °F 63% 29.91 in 10.0 mi SSW 6.9 mph - N/A   Scattered Clouds
5:16 PM 78.1 °F - 64.8 °F 63% 29.92 in 10.0 mi SSW 5.8 mph - N/A   Scattered Clouds
5:37 PM 78.4 °F - 64.6 °F 62% 29.92 in 10.0 mi SSW 9.2 mph - N/A   Scattered Clouds
5:56 PM 78.3 °F - 65.1 °F 64% 29.92 in 10.0 mi South 6.9 mph - N/A   Scattered Clouds
6:17 PM 79.0 °F - 65.5 °F 63% 29.93 in 10.0 mi South 5.8 mph - N/A   Scattered Clouds
6:36 PM 78.8 °F - 65.5 °F 64% 29.93 in 10.0 mi South 6.9 mph - N/A   Mostly Cloudy
6:57 PM 78.1 °F - 65.5 °F 65% 29.93 in 10.0 mi South 4.6 mph - N/A   Scattered Clouds
7:16 PM 76.8 °F - 65.3 °F 67% 29.93 in 10.0 mi Calm Calm - N/A   Clear
7:36 PM 75.6 °F - 64.4 °F 68% 29.94 in 10.0 mi Calm Calm - N/A   Clear
7:56 PM 73.0 °F - 64.9 °F 76% 29.95 in 10.0 mi Calm Calm - N/A   Clear
8:16 PM 73.0 °F - 64.6 °F 75% 29.96 in 10.0 mi Calm Calm - N/A   Scattered Clouds
8:36 PM 73.0 °F - 63.9 °F 73% 29.98 in 10.0 mi Calm Calm - N/A   Scattered Clouds
8:56 PM 72.0 °F - 63.0 °F 73% 29.98 in 10.0 mi Calm Calm - N/A   Scattered Clouds
9:16 PM 70.3 °F - 63.1 °F 78% 29.99 in 10.0 mi Calm Calm - N/A   Scattered Clouds
9:37 PM 68.7 °F - 62.6 °F 81% 30.00 in 10.0 mi Calm Calm - N/A   Clear
9:56 PM 70.2 °F - 62.1 °F 75% 30.00 in 10.0 mi Calm Calm - N/A   Clear
10:17 PM 67.8 °F - 61.0 °F 79% 30.00 in 10.0 mi Calm Calm - N/A   Clear
10:36 PM 69.1 °F - 60.4 °F 74% 30.00 in 10.0 mi Calm Calm - N/A   Clear
10:57 PM 69.6 °F - 60.8 °F 73% 30.01 in 10.0 mi Calm Calm - N/A   Clear
11:16 PM 67.5 °F - 59.7 °F 76% 30.01 in 10.0 mi Calm Calm - N/A   Clear
11:36 PM 69.1 °F - 59.9 °F 72% 30.02 in 10.0 mi Calm Calm - N/A   Clear
11:56 PM 68.9 °F - 59.2 °F 71% 30.02 in 10.0 mi Calm Calm - N/A   Clear